Location: Unspecified
(0.0000°N, 0.0000°E)
Time: 11:06:49
(UTC+00:00)

Gonets-D1 - Visible Passes

Search period start: 20 April 2019 00:00
Search period end: 30 April 2019 00:00
Orbit: 1414 x 1420 km, 82.6° (Epoch: 19 April)

Date Brightness Start Highest point End Pass type
(mag) Time Alt. Az. Time Alt. Az. Time Alt. Az.
20 Apr 11.2 05:10:11 10° NE 05:16:42 25° E 05:23:10 10° SE visible
20 Apr 11.0 19:27:42 10° SW 19:33:58 23° W 19:40:15 10° NW visible
21 Apr 9.1 18:15:57 10° S 18:24:22 78° W 18:32:45 10° N visible
22 Apr 11.4 04:46:35 10° NE 04:52:11 20° E 04:57:44 10° SE visible
22 Apr 10.7 19:02:28 10° SW 19:09:27 30° W 19:16:28 10° NNW visible
23 Apr 9.8 05:29:08 10° NNE 05:37:15 54° E 05:45:22 10° SSE visible
24 Apr 11.5 04:23:23 10° NE 04:27:39 15° E 04:31:53 10° ESE visible
24 Apr 10.4 18:37:25 10° SSW 18:44:55 37° W 18:52:28 10° NNW visible
25 Apr 10.1 05:04:55 10° NNE 05:12:45 44° E 05:20:33 10° SSE visible
25 Apr 11.7 19:27:18 10° WSW 19:30:02 12° W 19:32:45 10° WNW visible
26 Apr 11.7 04:01:27 10° ENE 04:03:08 11° E 04:04:48 10° E visible
26 Apr 10.1 18:12:30 10° SSW 18:20:24 46° W 18:28:20 10° NNW visible
27 Apr 10.4 04:40:50 10° NNE 04:48:14 35° E 04:55:36 10° SSE visible
27 Apr 11.5 19:00:49 10° WSW 19:05:30 16° W 19:10:12 10° NW visible
28 Apr 8.9 05:24:55 10° N 05:33:18 90° E 05:41:44 10° S visible
29 Apr 10.7 04:16:54 10° NNE 04:23:42 28° E 04:30:30 10° SE visible
29 Apr 11.4 18:35:07 10° SW 18:40:59 21° W 18:46:53 10° NW visible
